Regional Weather Roundup
Issued by NWS

Home | Current Version | Previous Version | Graphics & Text | Print | Product List | Glossary On
Versions: 1 2 3 4 5 6 7 8 9 10 11 12 13 14 15 16 17 18 19 20 21 22 23 24 25 26 27 28 29 30 31 32 33 34 35 36 37 38 39 40 41 42 43 44 45 46 47 48 49 50
000
ASUS43 KLOT 210208
RWRIL

ILLINOIS REGIONAL WEATHER ROUNDUP
NATIONAL WEATHER SERVICE CHICAGO/ROMEOVILLE IL
800 PM CST FRI JAN 20 2017

NOTE: "FAIR" INDICATES FEW OR NO CLOUDS BELOW 12,000 FEET WITH NO
SIGNIFICANT WEATHER AND/OR OBSTRUCTIONS TO VISIBILITY.

* THESE STATIONS ARE NOT UNDER NWS QUALITY CONTROL. THEY ALSO MAY NOT
  REPORT WEATHER SUCH AS PRECIPITATION OR FOG.

ILZ001-002-007-009-015-016-024-210300-
NORTHWEST ILLINOIS

CITY           SKY/WX    TMP DP  RH WIND       PRES   REMARKS
MOLINE         FOG       43  41  93 E6        29.57F VSB 1/2
STERLING*      FOG       38  38 100 E7        29.61F VSB 1/4 WCI  33
SAVANNA*       FOG       39  39  99 E6        29.60F VSB 1/4 WCI  35
$$

ILZ003-004-008-010-011-017-018-210300-
NORTH CENTRAL ILLINOIS

CITY           SKY/WX    TMP DP  RH WIND       PRES   REMARKS
ROCKFORD       FOG       40  39  97 E6        29.64F VSB 1/4
FREEPORT*      FOG       37  37  99 E5        29.63F VSB 1/4 WCI  33
ROCHELLE*      FOG       39  39 100 E8        29.62F VSB 1/4 WCI  33
DE KALB*       FOG       40  39  99 E6        29.64F VSB 1/4
$$

ILZ005-006-012>014-019>023-210300-
NORTHEAST ILLINOIS

CITY           SKY/WX    TMP DP  RH WIND       PRES   REMARKS
CHICAGO-OHARE  DRZL/FOG  41  41 100 SE6       29.65S VSB 1/4
CHICAGO-MIDWAY CLOUDY    42  41  96 E5        29.65F FOG
AURORA         NOT AVBL
LANSING*       CLOUDY    45  45 100 S5        29.66S FOG
JOLIET*        DRIZZLE   46  46 100 SE3       29.64F
WAUKEGAN       FOG       37  37 100 CALM      29.66S VSB 1/4
DUPAGE AIRPORT FOG       42  40  92 E3        29.64S VSB 1/4
KANKAKEE*      CLOUDY    46  46  98 CALM      29.66F FOG
WHEELING       FOG       39  38  96 CALM      29.67R VSB 1/2
MORRIS*        FOG       44  43  97 SE5       29.63F VSB 3/4
ROMEOVILLE*    FOG       43  43 100 SE5       29.64F VSB 1
NORTHERLY ISL    N/A     36  35  96 CALM        N/A
$$

LMZ740>746-210300-
SOUTHERN LAKE MICHIGAN

STATION/POSITION SKY/WX   TEMP    WIND        PRES    VSBY  WAVE
                          AIR SEA DIR/SP/G                  HT/PER
                          (F)     (DEG/KT/KT) (MB)    (MI)  (FT/S)
HARRISON CRIB              38     140/  5/  6   N/A
BURNHAM HARBOR             37     340/  2       N/A
CALUMET HARBOR             36      60/  1/  4 1003.9F
BURNS HARBOR               48     160/  9/ 15 1005.4
MICHIGAN CITY              47     130/  7/  8   N/A
$$

ILZ025>027-034>036-040-047-049-050-058-095>099-210300-
WEST-CENTRAL ILLINOIS

CITY           SKY/WX    TMP DP  RH WIND       PRES   REMARKS
QUINCY         CLOUDY    48  47  96 SE9       29.55F FOG
GALESBURG*     FOG       44  44 100 SE6       29.57S VSB 1/2
MACOMB*        CLOUDY    45  45 100 SE5       29.60R FOG
JACKSONVILLE*  CLOUDY    47  46  98 SE6       29.58S FOG
PITTSFIELD*    PTCLDY    47  47  99 E3        29.58S FOG
$$

ILZ028>032-037-038-041>044-048-051>054-059>061-210300-
CENTRAL ILLINOIS

CITY           SKY/WX    TMP DP  RH WIND       PRES   REMARKS
PONTIAC        CLOUDY    45  45 100 E7        29.64F FOG
BLOOMINGTON    LGT RAIN  48  47  96 SE12      29.62F
DECATUR        CLOUDY    51  50  96 SE7       29.62F
PEORIA         CLOUDY    48  48 100 SE6       29.60F FOG
LACON*         CLOUDY    46  46 100 SE8       29.59F FOG
LINCOLN*       CLOUDY    49  49  99 CALM      29.61S FOG
SPRINGFIELD    PTCLDY    49  47  93 SE8       29.60F FOG
TAYLORVILLE    CLOUDY    51  50  97 SE6       29.61S
$$

ILZ033-039-045-046-055>057-062-063-210300-
EAST-CENTRAL ILLINOIS

CITY           SKY/WX    TMP DP  RH WIND       PRES   REMARKS
CHAMPAIGN      CLOUDY    49  47  93 SE12      29.63F
RANTOUL*       CLOUDY    50  49  97 SE7       29.64F
MATTOON        CLOUDY    53  51  93 S9        29.63S
PARIS*         CLOUDY    50  49  97 SE7       29.67R
$$

ILZ079-100>102-210300-
SOUTHWEST ILLINOIS

CITY           SKY/WX    TMP DP  RH WIND       PRES   REMARKS
ALTON          MOCLDY    48  48 100 SE6       29.60R FOG
BELLEVILLE     PTCLDY    55  54  99 VRB6      29.59S
CAHOKIA*       CLEAR     53  49  86 SE6       29.59R
SPARTA*        PTCLDY    56  52  86 S9G17     29.63R
$$

ILZ064>066-069>071-074>076-080>082-084>086-088>090-092>094-210300-
SOUTH-CENTRAL ILLINOIS

CITY           SKY/WX    TMP DP  RH WIND       PRES   REMARKS
CARBONDALE     PTCLDY    56  53  90 S10       29.65R
CAIRO*         CLEAR     55  52  90 SE7       29.66S
EFFINGHAM*     CLOUDY    55  55 100 SE7       29.66S
MARION         CLOUDY    57  57 100 S10       29.66S
MT. VERNON     CLOUDY    56  52  86 S10       29.65R
CENTRALIA*     PTCLDY    54  52  92 S6        29.63R
SALEM*         PTCLDY    56  52  84 SE3       29.64R
METROPOLIS*    CLEAR     55  52  90 CALM      29.68S
$$

ILZ067-068-072-073-078-083-087-091-210300-
SOUTHEAST ILLINOIS

CITY           SKY/WX    TMP DP  RH WIND       PRES   REMARKS
LAWRENCEVILLE  PTCLDY    52  50  93 S9        29.68R
FLORA*         PTCLDY    54  51  90 S8        29.65F
FAIRFIELD*     MOCLDY    56  52  86 S6        29.65F
HARRISBURG*    PTCLDY    56  53  88 S12       29.66F
ROBINSON*      MOCLDY    51  49  93 S5        29.68R
CARMI*         MOCLDY    53  52  94 SE8       29.67R
$$

ABBREVIATIONS USED IN REMARKS
   TC - TEMPERATURE IN CELSIUS
  WCI - WIND CHILL INDEX
   HX - HEAT INDEX
  VSB - VISIBILITY
$$





USA.gov is the U.S. government's official web portal to all federal, state and local government web resources and services.